Location: Aragnouet
(42.7874°N, 0.2165°E)
Time: 11:04:38
(UTC+00:00)

Cosmos 1953 - Pass Details

Date: 09 April 2020
Orbit: 539 x 558 km, 82.5° (Epoch: 03 June)

Event Time Altitude Azimuth Distance (km) Brightness Sun altitude
Rises 19:30:26 0° 209° (SSW) 2,686 5.9 -10.6°
Reaches altitude 10° 19:32:44 10° 220° (SW) 1,802 5.2 -11.0°
Maximum altitude 19:36:18 32° 284° (WNW) 956 4.4 -11.6°
Drops below altitude 10° 19:39:55 10° 348° (NNW) 1,824 5.5 -12.2°
Sets 19:42:17 0° 359° (N) 2,726 6.2 -12.6°
